EW1895 Weather Reports


time (UTC)temp
C
wind
direction
speed
KPH
gust
KPH
rain 1hr
cm
rain 24hr
cm
rain mn
cm
humidity
%
barometer
mb
20260505181541 30 140 1.6 16.1 0.00 0.00 0.00 30 1012.6
20260505180100 29 182 1.6 12.9 0.00 0.00 0.00 31 1012.8
20260505174556 30 239 3.2 11.3 0.00 0.00 0.00 29 1012.9
20260505173043 30 201 0.0 4.8 0.00 0.00 0.00 31 1013.0
20260505171533 29 198 1.6 8.0 0.00 0.00 0.00 33 1013.1
20260505170034 29 90 0.0 8.0 0.00 0.00 0.00 33 1013.4
20260505164531 28 234 0.0 6.4 0.00 0.00 0.00 34 1013.5
20260505163029 28 45 1.6 12.9 0.00 0.00 0.00 36 1013.7
20260505161528 28 284 0.0 4.8 0.00 0.00 0.00 38 1013.9
20260505153021 26 313 0.0 6.4 0.00 0.00 0.00 42 1014.6
20260505151518 26 140 0.0 8.0 0.00 0.00 0.00 44 1014.5
20260505124509 18 306 0.0 1.6 0.00 0.00 0.00 63 1014.6
20260505123008 17 149 0.0 6.4 0.00 0.00 0.00 66 1014.9
20260505121509 16 214 0.0 1.6 0.00 0.00 0.00 70 1014.6
20260505120006 15 276 0.0 0.0 0.00 0.00 0.00 73 1014.6
20260505114506 15 306 0.0 6.4 0.00 0.00 0.00 74 1014.4
20260505113003 15 199 0.0 3.2 0.00 0.00 0.00 75 1014.2
20260505111504 14 249 0.0 0.0 0.00 0.00 0.00 76 1014.2
20260505101556 14 240 0.0 0.0 0.00 0.00 0.00 73 1013.6
20260505100055 14 269 0.0 0.0 0.00 0.00 0.00 73 1013.5
20260505094553 15 272 0.0 1.6 0.00 0.00 0.00 72 1013.5
20260505093052 15 298 0.0 0.0 0.00 0.00 0.00 71 1013.5
20260505091607 15 169 0.0 1.6 0.00 0.00 0.00 71 1013.5
20260505090051 15 234 0.0 4.8 0.00 0.00 0.00 71 1013.4
20260505084550 15 252 0.0 1.6 0.00 0.00 0.00 70 1013.4
20260505083049 15 215 0.0 1.6 0.00 0.00 0.00 69 1013.5
20260505081557 15 209 0.0 0.0 0.00 0.00 0.00 67 1013.3
20260505080058 15 131 0.0 3.2 0.00 0.00 0.00 66 1013.4
20260505074546 15 140 0.0 3.2 0.00 0.00 0.00 65 1013.4
20260505073047 15 244 0.0 4.8 0.00 0.00 0.00 64 1013.2
20260505071553 15 131 0.0 1.6 0.00 0.00 0.00 63 1013.0
20260505070047 15 209 0.0 4.8 0.00 0.00 0.00 62 1012.9
20260505064541 16 342 0.0 11.3 0.00 0.00 0.00 61 1013.0
20260505063048 16 239 0.0 6.4 0.00 0.00 0.00 60 1013.0
20260505061604 16 192 0.0 1.6 0.00 0.00 0.00 59 1012.9
20260505060036 16 248 0.0 3.2 0.00 0.00 0.00 59 1013.0
20260505054536 16 251 0.0 3.2 0.00 0.00 0.00 58 1013.0
20260505053040 16 195 0.0 6.4 0.00 0.00 0.00 58 1012.9
20260505051554 16 182 0.0 1.6 0.00 0.00 0.00 59 1013.0
20260505041531 16 222 0.0 0.0 0.00 0.00 0.00 62 1012.5
20260505040028 16 222 0.0 0.0 0.00 0.00 0.00 61 1012.4
20260505034529 16 222 0.0 0.0 0.00 0.00 0.00 62 1012.5
20260505033028 16 222 0.0 0.0 0.00 0.00 0.00 61 1012.4
20260505031522 17 222 0.0 0.0 0.00 0.00 0.00 59 1012.6
20260505030022 17 222 0.0 0.0 0.00 0.00 0.00 58 1012.6
20260505024518 17 222 0.0 0.0 0.00 0.00 0.00 58 1012.7
20260505023014 18 222 0.0 0.0 0.00 0.00 0.00 55 1012.5
20260505021512 18 223 0.0 0.0 0.00 0.00 0.00 53 1012.5
20260505020011 18 223 0.0 0.0 0.00 0.00 0.00 52 1012.5
20260505014508 18 145 0.0 0.0 0.00 0.00 0.00 51 1012.4
20260505013107 19 145 0.0 0.0 0.00 0.00 0.00 49 1012.3
20260505011501 20 135 0.0 0.0 0.00 0.00 0.00 47 1012.1
20260505010113 20 135 0.0 0.0 0.00 0.00 0.00 47 1011.9
20260505004559 20 123 0.0 1.6 0.00 0.00 0.00 45 1011.8
20260505003058 21 217 0.0 0.0 0.00 0.00 0.00 45 1011.6
20260505001603 21 217 0.0 1.6 0.00 0.00 0.00 45 1011.7
20260505000055 21 115 0.0 1.6 0.00 0.00 0.00 43 1011.5
20260504234548 21 148 0.0 3.2 0.00 0.00 0.00 41 1011.8
20260504233103 21 165 0.0 0.0 0.00 0.00 0.00 39 1011.8
20260504231547 22 140 0.0 3.2 0.00 0.00 0.00 38 1011.6
20260504230052 22 163 0.0 3.2 0.00 0.00 0.00 37 1011.4
20260504224540 23 137 0.0 1.6 0.00 0.00 0.00 36 1011.5
20260504223035 23 182 1.6 8.0 0.00 0.00 0.00 34 1011.7
20260504221532 24 73 0.0 8.0 0.00 0.00 0.00 33 1011.7
20260504220035 25 261 3.2 11.3 0.00 0.00 0.00 33 1011.5
20260504214532 25 217 0.0 4.8 0.00 0.00 0.00 33 1011.5
20260504213032 26 204 1.6 11.3 0.00 0.00 0.00 31 1011.4
20260504211533 26 18 0.0 8.0 0.00 0.00 0.00 31 1011.5
20260504210034 26 334 0.0 11.3 0.00 0.00 0.00 31 1011.6
20260504204527 26 198 0.0 8.0 0.00 0.00 0.00 32 1011.7
20260504203039 26 78 0.0 6.4 0.00 0.00 0.00 29 1011.8
20260504201527 26 141 0.0 11.3 0.00 0.00 0.00 30 1011.8
20260504200025 26 317 0.0 8.0 0.00 0.00 0.00 30 1012.1
20260504194523 26 233 1.6 6.4 0.00 0.00 0.00 29 1012.3
20260504193023 26 196 0.0 9.7 0.00 0.00 0.00 29 1012.4
20260504191524 26 239 1.6 11.3 0.00 0.00 0.00 29 1012.7
20260504190016 26 55 0.0 14.5 0.00 0.00 0.00 29 1012.9
20260504184514 25 227 0.0 8.0 0.00 0.00 0.00 30 1013.1
20260504183012 24 360 0.0 8.0 0.00 0.00 0.00 32 1013.3